Weather in Uchkuprik

Uzbekistan     40°32′42″N   71°03′27″E
temp.,
°C
wind,
m/s
gust,
m/s
humid.,
%
clouds,
%
prec.,
mm/h
press.,
hPa
HPBL,
m
26 october, tue
tue2623:00+15sw11200 0.0 101711
02:00+14sw22215 0.0 101713
05:00+13e1122100 0.0 101811
08:00+13e112391 0.0 102066
11:00+17ne2119100 0.0 1020453
14:00+20wsw121760 0.0 1018743
17:00+19w221825 0.0 101941
20:00+17sw11215 0.0 102117
27 october, wed
wed2723:00+16nnw0023100 0.0 102211
02:00+14wnw012653 0.0 102319
05:00+13wsw113189 0.0 102416
08:00+14nw1128100 0.0 102499
11:00+16nne1223100 0.0 1023379
14:00+19n1120100 0.0 1021567
17:00+18nnw1121100 0.0 1020145
20:00+17w1122100 0.0 102015
28 october, thu
thu2823:00+15sw2225100 0.0 102048
02:00+15sw3730100 0.0 1020213
05:00+15wsw51232100 0.0 1021533
08:00+14wsw8133776 0.0 1022774
11:00+16w893427 0.0 10231007
14:00+16wsw994255 0.0 10221130
17:00+13wsw9145722 0.0 1024627
20:00+12wsw8126083 0.0 1025487
29 october, fri
fri2923:00+11wsw511626 0.0 1026399
02:00+11sw36645 0.0 1027299
05:00+10sw36685 0.0 1028262
08:00+10sw24675 0.0 1029270
11:00+14ssw12500 0.0 1028863
14:00+17ne11390 0.0 10271119
17:00+17ene22390 0.0 1026626
20:00+15e23440 0.0 1027111
30 october, sat
sat3023:00+13se12490 0.0 102758
02:00+12se115161 0.0 102826
05:00+12ese1153100 0.0 102827
08:00+13ese1251100 0.0 1030102
11:00+16ene23390 0.0 1029609
14:00+19ene22290 0.0 1027999
17:00+18e2230100 0.0 102770
20:00+17ene1133100 0.0 102712